Retour au catalogue

STARLINK-2644

ActifCommunicationsVLEO
NORAD 48442·PAYLOAD·🇺🇸 United States

Lancé May 9, 2021 depuis Cape Canaveral Space Force Station

Loading…

Prochains Passages (prochaines 24 heures)

TLE

FraisSource: CelesTrak SupGP

Époque: Sep 15, 2026, 02:05 UTC

1 48442C 21040Q   26258.08729167  .00154990  00000+0  95731-3 0  2585
2 48442  53.1554 355.0157 0006596 348.1764 349.2505 15.76326302    16

Suivez STARLINK-2644 en temps réel avec AllMySat

Download on the App Store